Location: Tel Aviv
(32.0670°N, 34.7670°E)
Time: 13:38:47
(UTC+03:00)

Explorer 11/Cluster Stage 4 - Pass Details

Date: 17 September 2024
Orbit: 464 x 1208 km, 28.8° (Epoch: 05 October)

Event Time Altitude Azimuth Distance (km) Brightness Sun altitude
Rises 07:48:50 0° 260° (W) 3,510 9.3 16.6°
Reaches altitude 10° 07:51:16 10° 258° (WSW) 2,674 8.8 17.1°
Maximum altitude 07:57:53 68° 176° (S) 1,153 7.8 18.5°
Drops below altitude 10° 08:05:35 10° 95° (E) 3,094 11.9 20.1°
Sets 08:08:35 0° 93° (E) 4,094 11.8 20.7°
